When you browse on this site, cookies collect data to enhance your experience and personalize the content and advertising you see.
Visit our Privacy Policy to learn more. By continuing to use the site, you agree to this use of cookies and data.
  • In Österreich
  • Länderverzeichnis
  • Für 7 Tage
  • Wassertemperatur
  • Satellitenkarten
  • Wetterkarte
  • News
  • Widgets
  • user-avatar
    Anmelden

    Stündliche Wetter Chyzhivka

    Heute, 26 Mai, Sonntag

    Zeit Temperatur Niederschläge Wind Luftdruck Luftfeuchtigkeit
    00:00 +13°C° 0 mm 3 m/S 740 mmHg 94%
    01:00 +13°C° 0 mm 3 m/S 740 mmHg 95%
    02:00 +12°C° 0 mm 3 m/S 740 mmHg 95%
    03:00 +12°C° 0 mm 3 m/S 741 mmHg 95%
    04:00 +12°C° 0 mm 3 m/S 741 mmHg 95%
    05:00 +12°C° 0 mm 2 m/S 741 mmHg 95%
    06:00 +13°C° 0 mm 3 m/S 741 mmHg 91%
    07:00 +16°C° 0 mm 3 m/S 742 mmHg 87%
    08:00 +17°C° 0 mm 3 m/S 742 mmHg 83%
    09:00 +18°C° 0 mm 4 m/S 742 mmHg 77%
    10:00 +19°C° 0 mm 4 m/S 742 mmHg 70%
    11:00 +21°C° 0 mm 5 m/S 742 mmHg 64%
    12:00 +21°C° 0 mm 5 m/S 742 mmHg 62%
    13:00 +21°C° 0 mm 5 m/S 742 mmHg 60%
    14:00 +22°C° 0 mm 5 m/S 742 mmHg 58%
    15:00 +21°C° 0 mm 5 m/S 742 mmHg 61%
    16:00 +21°C° 0 mm 4 m/S 742 mmHg 64%
    17:00 +21°C° 0 mm 4 m/S 742 mmHg 67%
    18:00 +19°C° 0.2 mm 3 m/S 742 mmHg 74%
    19:00 +18°C° 0.2 mm 3 m/S 742 mmHg 82%
    20:00 +16°C° 0.2 mm 2 m/S 742 mmHg 89%
    21:00 +16°C° 0.2 mm 2 m/S 742 mmHg 91%
    22:00 +15°C° 0.2 mm 2 m/S 742 mmHg 92%
    23:00 +15°C° 0.2 mm 2 m/S 742 mmHg 94%

    Morgen, 27 Mai, Montag

    Zeit Temperatur Niederschläge Wind Luftdruck Luftfeuchtigkeit
    00:00 +14°C° 0 mm 2 m/S 742 mmHg 95%
    01:00 +14°C° 0 mm 2 m/S 743 mmHg 95%
    02:00 +13°C° 0 mm 3 m/S 743 mmHg 96%
    03:00 +14°C° 0 mm 2 m/S 743 mmHg 96%
    04:00 +14°C° 0 mm 2 m/S 743 mmHg 96%
    05:00 +14°C° 0 mm 2 m/S 743 mmHg 96%
    06:00 +15°C° 0 mm 2 m/S 743 mmHg 91%
    07:00 +17°C° 0 mm 2 m/S 743 mmHg 87%
    08:00 +19°C° 0 mm 2 m/S 743 mmHg 82%
    09:00 +21°C° 0.2 mm 3 m/S 743 mmHg 77%
    10:00 +22°C° 0.2 mm 3 m/S 743 mmHg 72%
    11:00 +23°C° 0.2 mm 4 m/S 743 mmHg 66%
    12:00 +25°C° 0.1 mm 4 m/S 743 mmHg 64%
    13:00 +26°C° 0.1 mm 4 m/S 743 mmHg 62%
    14:00 +26°C° 0.1 mm 4 m/S 743 mmHg 60%
    15:00 +26°C° 0 mm 4 m/S 743 mmHg 63%
    16:00 +26°C° 0 mm 3 m/S 742 mmHg 66%
    17:00 +26°C° 0 mm 2 m/S 742 mmHg 69%
    18:00 +25°C° 0 mm 2 m/S 742 mmHg 73%
    19:00 +23°C° 0 mm 2 m/S 742 mmHg 78%
    20:00 +20°C° 0 mm 2 m/S 742 mmHg 82%
    21:00 +19°C° 0 mm 2 m/S 742 mmHg 85%
    22:00 +19°C° 0 mm 2 m/S 742 mmHg 88%
    23:00 +18°C° 0 mm 2 m/S 742 mmHg 90%

    übermorgen, 28 Mai, Dienstag

    Zeit Temperatur Niederschläge Wind Luftdruck Luftfeuchtigkeit
    00:00 +18°C° 0.2 mm 2 m/S 742 mmHg 91%
    01:00 +17°C° 0.2 mm 2 m/S 742 mmHg 92%
    02:00 +17°C° 0.2 mm 3 m/S 742 mmHg 93%
    03:00 +17°C° 0 mm 3 m/S 742 mmHg 93%
    04:00 +17°C° 0 mm 3 m/S 742 mmHg 92%
    05:00 +17°C° 0 mm 3 m/S 741 mmHg 92%
    06:00 +18°C° 0 mm 4 m/S 741 mmHg 89%
    07:00 +18°C° 0 mm 4 m/S 741 mmHg 85%
    08:00 +19°C° 0 mm 5 m/S 741 mmHg 81%
    09:00 +21°C° 0 mm 6 m/S 741 mmHg 76%
    10:00 +22°C° 0 mm 6 m/S 741 mmHg 71%
    11:00 +24°C° 0 mm 7 m/S 741 mmHg 66%
    12:00 +24°C° 0 mm 7 m/S 741 mmHg 64%
    13:00 +26°C° 0 mm 7 m/S 741 mmHg 63%
    14:00 +26°C° 0 mm 8 m/S 740 mmHg 61%
    15:00 +24°C° 0 mm 7 m/S 740 mmHg 65%
    16:00 +23°C° 0 mm 6 m/S 740 mmHg 69%
    17:00 +23°C° 0 mm 5 m/S 739 mmHg 73%
    18:00 +22°C° 0 mm 5 m/S 739 mmHg 74%
    19:00 +21°C° 0 mm 5 m/S 739 mmHg 76%
    20:00 +20°C° 0 mm 4 m/S 739 mmHg 78%
    21:00 +20°C° 0 mm 4 m/S 739 mmHg 77%
    22:00 +19°C° 0 mm 4 m/S 739 mmHg 76%
    23:00 +18°C° 0 mm 4 m/S 739 mmHg 75%

    29 Mai, Mittwoch

    Zeit Temperatur Niederschläge Wind Luftdruck Luftfeuchtigkeit
    00:00 +17°C° 0 mm 4 m/S 739 mmHg 76%
    01:00 +17°C° 0 mm 4 m/S 739 mmHg 77%
    02:00 +15°C° 0 mm 5 m/S 739 mmHg 78%
    03:00 +15°C° 0 mm 5 m/S 738 mmHg 81%
    04:00 +15°C° 0 mm 4 m/S 738 mmHg 84%
    05:00 +14°C° 0 mm 4 m/S 738 mmHg 87%
    06:00 +16°C° 0.2 mm 5 m/S 739 mmHg 85%
    07:00 +17°C° 0.2 mm 5 m/S 739 mmHg 84%
    08:00 +19°C° 0.2 mm 5 m/S 739 mmHg 82%
    09:00 +21°C° 0 mm 5 m/S 739 mmHg 79%
    10:00 +22°C° 0 mm 5 m/S 739 mmHg 76%
    11:00 +25°C° 0 mm 5 m/S 739 mmHg 72%
    12:00 +25°C° 0.3 mm 5 m/S 739 mmHg 72%
    13:00 +26°C° 0.3 mm 6 m/S 739 mmHg 71%
    14:00 +26°C° 0.3 mm 6 m/S 739 mmHg 70%
    15:00 +26°C° 0.5 mm 5 m/S 739 mmHg 73%
    16:00 +25°C° 0.5 mm 5 m/S 739 mmHg 76%
    17:00 +25°C° 0.5 mm 4 m/S 739 mmHg 78%
    18:00 +24°C° 0.1 mm 3 m/S 739 mmHg 82%
    19:00 +22°C° 0.1 mm 3 m/S 739 mmHg 85%
    20:00 +20°C° 0.1 mm 3 m/S 739 mmHg 89%
    21:00 +20°C° 0 mm 2 m/S 739 mmHg 90%
    22:00 +19°C° 0 mm 2 m/S 739 mmHg 91%
    23:00 +18°C° 0 mm 2 m/S 739 mmHg 92%

    30 Mai, Donnerstag

    Zeit Temperatur Niederschläge Wind Luftdruck Luftfeuchtigkeit
    00:00 +19°C° 0 mm 1 m/S 739 mmHg 93%
    01:00 +18°C° 0 mm 1 m/S 739 mmHg 94%
    02:00 +18°C° 0 mm 1 m/S 740 mmHg 94%
    03:00 +18°C° 0 mm 1 m/S 740 mmHg 95%
    04:00 +18°C° 0 mm 1 m/S 740 mmHg 95%
    05:00 +18°C° 0 mm 1 m/S 740 mmHg 96%
    06:00 +19°C° 0.1 mm 1 m/S 740 mmHg 92%
    07:00 +20°C° 0.1 mm 2 m/S 741 mmHg 89%
    08:00 +21°C° 0.1 mm 3 m/S 741 mmHg 85%
    09:00 +21°C° 0.5 mm 3 m/S 742 mmHg 83%
    10:00 +22°C° 0.5 mm 4 m/S 742 mmHg 81%
    11:00 +22°C° 0.5 mm 5 m/S 742 mmHg 79%
    12:00 +22°C° 0.6 mm 5 m/S 743 mmHg 77%
    13:00 +22°C° 0.6 mm 5 m/S 743 mmHg 76%
    14:00 +22°C° 0.6 mm 5 m/S 743 mmHg 74%
    15:00 +21°C° 0.2 mm 5 m/S 744 mmHg 74%
    16:00 +21°C° 0.2 mm 5 m/S 744 mmHg 75%
    17:00 +20°C° 0.2 mm 5 m/S 744 mmHg 75%
    18:00 +19°C° 0 mm 4 m/S 745 mmHg 78%
    19:00 +17°C° 0 mm 3 m/S 745 mmHg 82%
    20:00 +16°C° 0 mm 3 m/S 746 mmHg 85%
    21:00 +14°C° 0 mm 3 m/S 746 mmHg 88%
    22:00 +13°C° 0 mm 3 m/S 746 mmHg 90%
    23:00 +12°C° 0 mm 3 m/S 747 mmHg 93%

    31 Mai, Freitag

    Zeit Temperatur Niederschläge Wind Luftdruck Luftfeuchtigkeit
    00:00 +13°C° 0 mm 2 m/S 747 mmHg 94%
    01:00 +12°C° 0 mm 2 m/S 747 mmHg 95%
    02:00 +12°C° 0 mm 2 m/S 747 mmHg 96%
    03:00 +12°C° 0 mm 2 m/S 748 mmHg 96%
    04:00 +12°C° 0 mm 2 m/S 748 mmHg 96%
    05:00 +10°C° 0 mm 2 m/S 748 mmHg 96%
    06:00 +13°C° 0 mm 2 m/S 748 mmHg 89%
    07:00 +15°C° 0 mm 2 m/S 748 mmHg 82%
    08:00 +16°C° 0 mm 2 m/S 748 mmHg 75%
    09:00 +18°C° 0 mm 2 m/S 748 mmHg 70%
    10:00 +19°C° 0 mm 2 m/S 748 mmHg 66%
    11:00 +20°C° 0 mm 2 m/S 748 mmHg 62%
    12:00 +21°C° 0 mm 2 m/S 748 mmHg 59%
    13:00 +21°C° 0 mm 2 m/S 748 mmHg 56%
    14:00 +22°C° 0 mm 3 m/S 747 mmHg 53%
    15:00 +22°C° 0 mm 3 m/S 747 mmHg 55%
    16:00 +21°C° 0 mm 3 m/S 747 mmHg 56%
    17:00 +21°C° 0 mm 3 m/S 747 mmHg 58%
    18:00 +20°C° 0 mm 3 m/S 747 mmHg 63%
    19:00 +18°C° 0 mm 3 m/S 747 mmHg 68%
    20:00 +16°C° 0 mm 2 m/S 747 mmHg 72%
    21:00 +15°C° 0 mm 2 m/S 747 mmHg 74%
    22:00 +14°C° 0 mm 2 m/S 747 mmHg 77%
    23:00 +13°C° 0 mm 2 m/S 747 mmHg 79%
    Mehr zeigen